This is the latest recevied weather packets stored in our database for station/object KB4RFE. If no packets are shown the sender has not sent any weather packets the latest 10 day(s).
| Time | Temp. | Humidity | Pressure | Rain* | Wind** | Luminosity | Snow |
|---|---|---|---|---|---|---|---|
| 1787918793 | 23.89° C | 99% | 1019.7 hPa | 0 mm | - | 62 W/m² | - |
| 1787918493 | 23.89° C | 99% | 1019.7 hPa | 0 mm | - | 65 W/m² | - |
| 1787918192 | 23.89° C | 99% | 1019.6 hPa | 0 mm | - | 65 W/m² | - |
| 1787917886 | 23.89° C | 99% | 1019.6 hPa | 0 mm | - | 62 W/m² | - |
| 1787917583 | 23.89° C | 99% | 1019.8 hPa | 0 mm | - | 57 W/m² | - |
| 1787917279 | 23.89° C | 99% | 1019.7 hPa | 0 mm | - | 53 W/m² | - |
| 1787916978 | 23.89° C | 99% | 1019.4 hPa | 0 mm | - | 47 W/m² | - |
| 1787916673 | 23.89° C | 99% | 1019.3 hPa | 0 mm | - | 41 W/m² | - |
| 1787916373 | 23.89° C | 99% | 1019.3 hPa | 0.51 mm | - | 35 W/m² | - |
| 1787916068 | 23.33° C | 99% | 1019.3 hPa | 0.51 mm | - | 32 W/m² | - |
| 1787915768 | 23.33° C | 99% | 1019.2 hPa | 0 mm | - | 16 W/m² | - |
| 1787915463 | 23.33° C | 99% | 1019.2 hPa | 0 mm | - | 17 W/m² | - |
| 1787915163 | 23.33° C | 99% | 1019.2 hPa | 0 mm | - | 6 W/m² | - |
| 1787914858 | 23.33° C | 99% | 1019.2 hPa | 0 mm | - | 3 W/m² | - |
| 1787914555 | 23.33° C | 99% | 1019 hPa | 0 mm | - | 3 W/m² | - |
| 1787914252 | 23.33° C | 99% | 1019 hPa | 0 mm | - | 1 W/m² | - |
| 1787913951 | 23.33° C | 99% | 1019.1 hPa | 0 mm | - | 1 W/m² | - |
| 1787913651 | 23.33° C | 99% | 1019 hPa | 0 mm | - | 0 W/m² | - |
| 1787913349 | 23.33° C | 99% | 1019 hPa | 0 mm | - | 0 W/m² | - |
| 1787913045 | 23.33° C | 99% | 1019.1 hPa | 0 mm | - | 0 W/m² | - |
| 1787912743 | 23.33° C | 99% | 1019.1 hPa | 0 mm | - | 0 W/m² | - |
| 1787912439 | 23.33° C | 99% | 1019.1 hPa | 0 mm | - | 0 W/m² | - |
| 1787912137 | 23.33° C | 99% | 1019 hPa | 0 mm | - | 0 W/m² | - |
| 1787911833 | 23.33° C | 99% | 1018.9 hPa | 0 mm | - | 0 W/m² | - |
| 1787911527 | 23.33° C | 99% | 1018.8 hPa | 0 mm | - | 0 W/m² | - |
* Rain latest hour (hover to see other rain measurements)
** Current wind speed in m/s (hover to see current wind gust speed)